Weather in Mohyliv-Podilskyi

Ukraine / Vinnytsia Region     48°26′27″N   27°48′07″E
temp.,
°C
wind,
m/s
gust,
m/s
humid.,
%
clouds,
%
prec.,
mm/h
press.,
hPa
HPBL,
m
2 december, thu
thu223:00+1s497195 0.0 1007486
02:00+2s5126994 0.0 1005332
05:00+1s4107541 0.0 1004187
08:00+4s4127388 0.0 1004259
11:00+8ssw5136048 0.0 1003469
14:00+10sw61153100 0.0 1002786
17:00+7ssw41066100 0.0 1003179
20:00+6ssw377355 0.0 1003116
3 december, fri
fri323:00+5s35745 0.0 100375
02:00+4sse35718 0.0 100366
05:00+3sse3479100 0.0 100257
08:00+2sse358539 0.0 1001102
11:00+7ssw51262100 0.0 1001317
14:00+5nw8973100 0.0 1004612
17:00+2nnw71173100 0.0 1009776
20:00+1nw51079100 0.0 1012661
4 december, sat
sat423:000nw4984100 0.0 1015409
02:00−2nw379062 0.0 1016206
05:00−3wnw119157 0.0 101610
08:00−4sw01875 0.0 101710
11:000sse22580 0.0 1016295
14:00+2sse3444100 0.0 1014546
17:000ese3654100 0.0 1013130
20:000se3957100 0.0 1013216
5 december, sun
sun523:000se4116543 0.0 1012297
02:00−1ese3979100 0.0 1011181
05:00+1se51276100 0.0 1009462
08:00+2sse51187100 0.0 1009581
11:00+4sse4989100 0.0 1009706
14:00+5s3580100 0.0 1007513
17:00+4sse2286100 0.0 100818
20:00+3se12905 0.0 100911
6 december, mon
mon623:00+2ese11915 0.0 100910
02:00+2e229357 0.0 100914
05:00+2e2295100 0.0 100920
08:00+2ese3496100 0.0 100965
11:00+5se1387100 0.0 1009242
14:00+6ene1184100 0.0 1008239
17:00+5wnw2290100 0.1 100843
20:00+5w2489100 0.8 1009170